Opps! IO-117 back by popular demand.
I will add IO-117 (Greencube) back into the next weekly TLE distribution. In
the meantime, here are the current (February 3, 2023) TLE.
IO-117
1 53106U 22080B 23034.19933790 -.00000003 00000-0 00000-0 0 9994
2 53106 70.1777 6.2677 0008922 216.5435 143.4616 6.42557193 13147
Ray Hoad
WA5QGD
AMSAT-NA Orbital Elements Manager